iso_date,epoch_date,Year,Hour,Min,DOY,POS_DOY,Lat,Lon,BP,Ts,Ta,has_bp,has_ts,has_ta,BuoyID,Buoy_Type,Buoy_Owner,Logistics,Hemisphere
2018-09-12T22:04:48Z,1536789888,2018,22,0,255.92,255.92,71.251,18.327,994.1,10.27,-999.0,yes,yes,no,300234065749690,BD2GI,AOML,LAGARFOSS,North
2018-09-12T23:02:24Z,1536793344,2018,23,0,255.96,255.96,71.251,18.323,994.3,10.29,-999.0,yes,yes,no,300234065749690,BD2GI,AOML,LAGARFOSS,North
2018-09-13T00:00:00Z,1536796800,2018,0,0,256.0,256.0,71.256,18.355,994.4,10.32,-999.0,yes,yes,no,300234065749690,BD2GI,AOML,LAGARFOSS,North
2018-09-13T00:57:36Z,1536800256,2018,1,0,256.04,256.04,71.257,18.405,994.4,10.38,-999.0,yes,yes,no,300234065749690,BD2GI,AOML,LAGARFOSS,North
2018-09-13T01:55:12Z,1536803712,2018,2,0,256.08,256.08,71.254,18.462,994.5,10.45,-999.0,yes,yes,no,300234065749690,BD2GI,AOML,LAGARFOSS,North
2018-09-13T02:52:48Z,1536807168,2018,3,0,256.12,256.12,71.247,18.52,994.7,10.44,-999.0,yes,yes,no,300234065749690,BD2GI,AOML,LAGARFOSS,North
2018-09-13T04:04:48Z,1536811488,2018,4,0,256.17,256.17,71.239,18.569,994.9,10.42,-999.0,yes,yes,no,300234065749690,BD2GI,AOML,LAGARFOSS,North
2018-09-13T05:02:24Z,1536814944,2018,5,0,256.21,256.21,71.23,18.602,995.5,10.36,-999.0,yes,yes,no,300234065749690,BD2GI,AOML,LAGARFOSS,North
2018-09-13T06:00:00Z,1536818400,2018,6,0,256.25,256.25,71.223,18.622,996.0,10.32,-999.0,yes,yes,no,300234065749690,BD2GI,AOML,LAGARFOSS,North
2018-09-13T06:57:36Z,1536821856,2018,7,0,256.29,256.29,71.216,18.632,996.7,10.31,-999.0,yes,yes,no,300234065749690,BD2GI,AOML,LAGARFOSS,North
2018-09-13T07:55:12Z,1536825312,2018,8,0,256.33,256.33,71.209,18.628,997.5,10.32,-999.0,yes,yes,no,300234065749690,BD2GI,AOML,LAGARFOSS,North
2018-09-13T09:07:12Z,1536829632,2018,9,0,256.38,256.38,71.207,18.627,998.2,10.35,-999.0,yes,yes,no,300234065749690,BD2GI,AOML,LAGARFOSS,North
2018-09-13T10:04:48Z,1536833088,2018,10,0,256.42,256.42,71.209,18.628,998.8,10.38,-999.0,yes,yes,no,300234065749690,BD2GI,AOML,LAGARFOSS,North
2018-09-13T11:02:24Z,1536836544,2018,11,0,256.46,256.46,71.216,18.638,999.4,10.49,-999.0,yes,yes,no,300234065749690,BD2GI,AOML,LAGARFOSS,North
2018-09-13T12:00:00Z,1536840000,2018,12,0,256.5,256.5,71.226,18.676,999.7,10.53,-999.0,yes,yes,no,300234065749690,BD2GI,AOML,LAGARFOSS,North
2018-09-13T12:57:36Z,1536843456,2018,13,0,256.54,256.54,71.234,18.734,1000.0,10.5,-999.0,yes,yes,no,300234065749690,BD2GI,AOML,LAGARFOSS,North
2018-09-13T13:55:12Z,1536846912,2018,14,0,256.58,256.58,71.239,18.804,1000.2,10.49,-999.0,yes,yes,no,300234065749690,BD2GI,AOML,LAGARFOSS,North
2018-09-13T14:52:48Z,1536850368,2018,15,0,256.62,256.62,71.239,18.873,1000.5,10.44,-999.0,yes,yes,no,300234065749690,BD2GI,AOML,LAGARFOSS,North
2018-09-13T16:04:48Z,1536854688,2018,16,0,256.67,256.67,71.235,18.933,1000.7,10.42,-999.0,yes,yes,no,300234065749690,BD2GI,AOML,LAGARFOSS,North
2018-09-13T17:02:24Z,1536858144,2018,17,0,256.71,256.71,71.227,18.978,1000.8,10.39,-999.0,yes,yes,no,300234065749690,BD2GI,AOML,LAGARFOSS,North
2018-09-13T18:00:00Z,1536861600,2018,18,0,256.75,256.75,71.219,18.997,1001.0,10.39,-999.0,yes,yes,no,300234065749690,BD2GI,AOML,LAGARFOSS,North
2018-09-13T18:57:36Z,1536865056,2018,19,0,256.79,256.79,71.213,18.998,1001.2,10.4,-999.0,yes,yes,no,300234065749690,BD2GI,AOML,LAGARFOSS,North
2018-09-13T19:55:12Z,1536868512,2018,20,0,256.83,256.83,71.208,18.987,1001.4,10.44,-999.0,yes,yes,no,300234065749690,BD2GI,AOML,LAGARFOSS,North
2018-09-13T21:07:12Z,1536872832,2018,21,0,256.88,256.88,71.207,18.968,1001.4,10.43,-999.0,yes,yes,no,300234065749690,BD2GI,AOML,LAGARFOSS,North
2018-09-13T22:04:48Z,1536876288,2018,22,0,256.92,256.92,71.208,18.95,1001.5,10.41,-999.0,yes,yes,no,300234065749690,BD2GI,AOML,LAGARFOSS,North
2018-09-13T23:02:24Z,1536879744,2018,23,0,256.96,256.96,71.215,18.94,1001.6,10.37,-999.0,yes,yes,no,300234065749690,BD2GI,AOML,LAGARFOSS,North
2018-09-14T00:00:00Z,1536883200,2018,0,0,257.0,257.0,71.226,18.945,1001.4,10.36,-999.0,yes,yes,no,300234065749690,BD2GI,AOML,LAGARFOSS,North
2018-09-14T00:57:36Z,1536886656,2018,1,0,257.04,257.04,71.237,18.973,1001.2,10.34,-999.0,yes,yes,no,300234065749690,BD2GI,AOML,LAGARFOSS,North
2018-09-14T01:55:12Z,1536890112,2018,2,0,257.08,257.08,71.245,19.019,1001.1,10.31,-999.0,yes,yes,no,300234065749690,BD2GI,AOML,LAGARFOSS,North
2018-09-14T02:52:48Z,1536893568,2018,3,0,257.12,257.12,71.248,19.067,1000.9,10.3,-999.0,yes,yes,no,300234065749690,BD2GI,AOML,LAGARFOSS,North
2018-09-14T04:04:48Z,1536897888,2018,4,0,257.17,257.17,71.248,19.115,1000.6,10.28,-999.0,yes,yes,no,300234065749690,BD2GI,AOML,LAGARFOSS,North
2018-09-14T05:02:24Z,1536901344,2018,5,0,257.21,257.21,71.243,19.145,1000.6,10.29,-999.0,yes,yes,no,300234065749690,BD2GI,AOML,LAGARFOSS,North
2018-09-14T06:00:00Z,1536904800,2018,6,0,257.25,257.25,71.234,19.159,1000.8,10.31,-999.0,yes,yes,no,300234065749690,BD2GI,AOML,LAGARFOSS,North
2018-09-14T06:57:36Z,1536908256,2018,7,0,257.29,257.29,71.223,19.151,1000.9,10.32,-999.0,yes,yes,no,300234065749690,BD2GI,AOML,LAGARFOSS,North
2018-09-14T07:55:12Z,1536911712,2018,8,0,257.33,257.33,71.215,19.12,1001.2,10.35,-999.0,yes,yes,no,300234065749690,BD2GI,AOML,LAGARFOSS,North
2018-09-14T09:07:12Z,1536916032,2018,9,0,257.38,257.38,71.21,19.084,1001.2,10.39,-999.0,yes,yes,no,300234065749690,BD2GI,AOML,LAGARFOSS,North
2018-09-14T10:04:48Z,1536919488,2018,10,0,257.42,257.42,71.207,19.043,1001.1,10.44,-999.0,yes,yes,no,300234065749690,BD2GI,AOML,LAGARFOSS,North
2018-09-14T11:02:24Z,1536922944,2018,11,0,257.46,257.46,71.209,19.005,1001.1,10.47,-999.0,yes,yes,no,300234065749690,BD2GI,AOML,LAGARFOSS,North
2018-09-14T12:00:00Z,1536926400,2018,12,0,257.5,257.5,71.213,18.981,1001.2,10.5,-999.0,yes,yes,no,300234065749690,BD2GI,AOML,LAGARFOSS,North
2018-09-14T12:57:36Z,1536929856,2018,13,0,257.54,257.54,71.22,18.979,1001.1,10.51,-999.0,yes,yes,no,300234065749690,BD2GI,AOML,LAGARFOSS,North
2018-09-14T13:55:12Z,1536933312,2018,14,0,257.58,257.58,71.225,18.999,1001.0,10.43,-999.0,yes,yes,no,300234065749690,BD2GI,AOML,LAGARFOSS,North
2018-09-14T14:52:48Z,1536936768,2018,15,0,257.62,257.62,71.228,19.031,1000.9,10.44,-999.0,yes,yes,no,300234065749690,BD2GI,AOML,LAGARFOSS,North
2018-09-14T16:04:48Z,1536941088,2018,16,0,257.67,257.67,71.225,19.061,1000.8,10.44,-999.0,yes,yes,no,300234065749690,BD2GI,AOML,LAGARFOSS,North
2018-09-14T17:02:24Z,1536944544,2018,17,0,257.71,257.71,71.218,19.09,1000.6,10.47,-999.0,yes,yes,no,300234065749690,BD2GI,AOML,LAGARFOSS,North
2018-09-14T18:00:00Z,1536948000,2018,18,0,257.75,257.75,71.206,19.101,1000.6,10.45,-999.0,yes,yes,no,300234065749690,BD2GI,AOML,LAGARFOSS,North
2018-09-14T18:57:36Z,1536951456,2018,19,0,257.79,257.79,71.196,19.09,1000.6,10.44,-999.0,yes,yes,no,300234065749690,BD2GI,AOML,LAGARFOSS,North
2018-09-14T19:55:12Z,1536954912,2018,20,0,257.83,257.83,71.186,19.059,1000.6,10.4,-999.0,yes,yes,no,300234065749690,BD2GI,AOML,LAGARFOSS,North
2018-09-14T21:07:12Z,1536959232,2018,21,0,257.88,257.88,71.177,19.011,1000.5,10.36,-999.0,yes,yes,no,300234065749690,BD2GI,AOML,LAGARFOSS,North
2018-09-14T22:04:48Z,1536962688,2018,22,0,257.92,257.92,71.172,18.959,1000.7,10.36,-999.0,yes,yes,no,300234065749690,BD2GI,AOML,LAGARFOSS,North
2018-09-14T23:02:24Z,1536966144,2018,23,0,257.96,257.96,71.173,18.906,1000.4,10.37,-999.0,yes,yes,no,300234065749690,BD2GI,AOML,LAGARFOSS,North
2018-09-15T00:00:00Z,1536969600,2018,0,0,258.0,258.0,71.178,18.866,1000.2,10.37,-999.0,yes,yes,no,300234065749690,BD2GI,AOML,LAGARFOSS,North
2018-09-15T00:57:36Z,1536973056,2018,1,0,258.04,258.04,71.186,18.845,1000.2,10.35,-999.0,yes,yes,no,300234065749690,BD2GI,AOML,LAGARFOSS,North
2018-09-15T01:55:12Z,1536976512,2018,2,0,258.08,258.08,71.194,18.847,999.9,10.36,-999.0,yes,yes,no,300234065749690,BD2GI,AOML,LAGARFOSS,North
2018-09-15T02:52:48Z,1536979968,2018,3,0,258.12,258.12,71.199,18.876,999.8,10.36,-999.0,yes,yes,no,300234065749690,BD2GI,AOML,LAGARFOSS,North
2018-09-15T04:04:48Z,1536984288,2018,4,0,258.17,258.17,71.197,18.91,999.8,10.37,-999.0,yes,yes,no,300234065749690,BD2GI,AOML,LAGARFOSS,North
2018-09-15T05:02:24Z,1536987744,2018,5,0,258.21,258.21,71.194,18.94,999.8,10.37,-999.0,yes,yes,no,300234065749690,BD2GI,AOML,LAGARFOSS,North
2018-09-15T06:00:00Z,1536991200,2018,6,0,258.25,258.25,71.189,18.959,1000.0,10.41,-999.0,yes,yes,no,300234065749690,BD2GI,AOML,LAGARFOSS,North
2018-09-15T06:57:36Z,1536994656,2018,7,0,258.29,258.29,71.182,18.96,1000.2,10.49,-999.0,yes,yes,no,300234065749690,BD2GI,AOML,LAGARFOSS,North
2018-09-15T07:55:12Z,1536998112,2018,8,0,258.33,258.33,71.176,18.955,1000.6,10.49,-999.0,yes,yes,no,300234065749690,BD2GI,AOML,LAGARFOSS,North
2018-09-15T09:07:12Z,1537002432,2018,9,0,258.38,258.38,71.171,18.941,1001.0,10.53,-999.0,yes,yes,no,300234065749690,BD2GI,AOML,LAGARFOSS,North
2018-09-15T10:04:48Z,1537005888,2018,10,0,258.42,258.42,71.169,18.917,1001.1,10.56,-999.0,yes,yes,no,300234065749690,BD2GI,AOML,LAGARFOSS,North
2018-09-15T11:02:24Z,1537009344,2018,11,0,258.46,258.46,71.171,18.89,1001.3,10.63,-999.0,yes,yes,no,300234065749690,BD2GI,AOML,LAGARFOSS,North
2018-09-15T12:00:00Z,1537012800,2018,12,0,258.5,258.5,71.177,18.868,1001.2,10.62,-999.0,yes,yes,no,300234065749690,BD2GI,AOML,LAGARFOSS,North
2018-09-15T12:57:36Z,1537016256,2018,13,0,258.54,258.54,71.186,18.863,1001.4,10.67,-999.0,yes,yes,no,300234065749690,BD2GI,AOML,LAGARFOSS,North
2018-09-15T13:55:12Z,1537019712,2018,14,0,258.58,258.58,71.195,18.871,1001.4,10.67,-999.0,yes,yes,no,300234065749690,BD2GI,AOML,LAGARFOSS,North
2018-09-15T14:52:48Z,1537023168,2018,15,0,258.62,258.62,71.204,18.887,1001.4,10.58,-999.0,yes,yes,no,300234065749690,BD2GI,AOML,LAGARFOSS,North
2018-09-15T16:04:48Z,1537027488,2018,16,0,258.67,258.67,71.209,18.913,1001.4,10.53,-999.0,yes,yes,no,300234065749690,BD2GI,AOML,LAGARFOSS,North
2018-09-15T17:02:24Z,1537030944,2018,17,0,258.71,258.71,71.208,18.938,1001.6,10.48,-999.0,yes,yes,no,300234065749690,BD2GI,AOML,LAGARFOSS,North
2018-09-15T18:00:00Z,1537034400,2018,18,0,258.75,258.75,71.204,18.952,1001.8,10.47,-999.0,yes,yes,no,300234065749690,BD2GI,AOML,LAGARFOSS,North
2018-09-15T18:57:36Z,1537037856,2018,19,0,258.79,258.79,71.198,18.953,1002.1,10.47,-999.0,yes,yes,no,300234065749690,BD2GI,AOML,LAGARFOSS,North
2018-09-15T19:55:12Z,1537041312,2018,20,0,258.83,258.83,71.189,18.936,1002.2,10.4,-999.0,yes,yes,no,300234065749690,BD2GI,AOML,LAGARFOSS,North
2018-09-15T21:07:12Z,1537045632,2018,21,0,258.88,258.88,71.18,18.902,1002.3,10.39,-999.0,yes,yes,no,300234065749690,BD2GI,AOML,LAGARFOSS,North
2018-09-15T22:04:48Z,1537049088,2018,22,0,258.92,258.92,71.172,18.851,1002.3,10.37,-999.0,yes,yes,no,300234065749690,BD2GI,AOML,LAGARFOSS,North
2018-09-15T23:02:24Z,1537052544,2018,23,0,258.96,258.96,71.169,18.796,1002.2,10.34,-999.0,yes,yes,no,300234065749690,BD2GI,AOML,LAGARFOSS,North
2018-09-16T00:00:00Z,1537056000,2018,0,0,259.0,259.0,71.17,18.748,1002.2,10.35,-999.0,yes,yes,no,300234065749690,BD2GI,AOML,LAGARFOSS,North
2018-09-16T00:57:36Z,1537059456,2018,1,0,259.04,259.04,71.177,18.713,1002.6,10.33,-999.0,yes,yes,no,300234065749690,BD2GI,AOML,LAGARFOSS,North
2018-09-16T01:55:12Z,1537062912,2018,2,0,259.08,259.08,71.187,18.695,1002.6,10.34,-999.0,yes,yes,no,300234065749690,BD2GI,AOML,LAGARFOSS,North
2018-09-16T02:52:48Z,1537066368,2018,3,0,259.12,259.12,71.196,18.696,1002.8,10.33,-999.0,yes,yes,no,300234065749690,BD2GI,AOML,LAGARFOSS,North
2018-09-16T04:04:48Z,1537070688,2018,4,0,259.17,259.17,71.201,18.701,1003.0,10.31,-999.0,yes,yes,no,300234065749690,BD2GI,AOML,LAGARFOSS,North
2018-09-16T05:02:24Z,1537074144,2018,5,0,259.21,259.21,71.204,18.716,1003.3,10.3,-999.0,yes,yes,no,300234065749690,BD2GI,AOML,LAGARFOSS,North
2018-09-16T06:00:00Z,1537077600,2018,6,0,259.25,259.25,71.203,18.727,1003.5,10.29,-999.0,yes,yes,no,300234065749690,BD2GI,AOML,LAGARFOSS,North
2018-09-16T06:57:36Z,1537081056,2018,7,0,259.29,259.29,71.197,18.739,1003.6,10.27,-999.0,yes,yes,no,300234065749690,BD2GI,AOML,LAGARFOSS,North
2018-09-16T07:55:12Z,1537084512,2018,8,0,259.33,259.33,71.189,18.744,1003.8,10.28,-999.0,yes,yes,no,300234065749690,BD2GI,AOML,LAGARFOSS,North
2018-09-16T09:07:12Z,1537088832,2018,9,0,259.38,259.38,71.178,18.733,1003.8,10.29,-999.0,yes,yes,no,300234065749690,BD2GI,AOML,LAGARFOSS,North
2018-09-16T10:04:48Z,1537092288,2018,10,0,259.42,259.42,71.167,18.705,1003.9,10.28,-999.0,yes,yes,no,300234065749690,BD2GI,AOML,LAGARFOSS,North
2018-09-16T11:02:24Z,1537095744,2018,11,0,259.46,259.46,71.158,18.672,1004.2,10.28,-999.0,yes,yes,no,300234065749690,BD2GI,AOML,LAGARFOSS,North
2018-09-16T12:00:00Z,1537099200,2018,12,0,259.5,259.5,71.151,18.636,1004.8,10.29,-999.0,yes,yes,no,300234065749690,BD2GI,AOML,LAGARFOSS,North
2018-09-16T12:57:36Z,1537102656,2018,13,0,259.54,259.54,71.148,18.599,1005.0,10.31,-999.0,yes,yes,no,300234065749690,BD2GI,AOML,LAGARFOSS,North
2018-09-16T13:55:12Z,1537106112,2018,14,0,259.58,259.58,71.146,18.57,1005.3,10.31,-999.0,yes,yes,no,300234065749690,BD2GI,AOML,LAGARFOSS,North
2018-09-16T14:52:48Z,1537109568,2018,15,0,259.62,259.62,71.147,18.553,1005.4,10.32,-999.0,yes,yes,no,300234065749690,BD2GI,AOML,LAGARFOSS,North
2018-09-16T16:04:48Z,1537113888,2018,16,0,259.67,259.67,71.148,18.553,1005.5,10.32,-999.0,yes,yes,no,300234065749690,BD2GI,AOML,LAGARFOSS,North
2018-09-16T17:02:24Z,1537117344,2018,17,0,259.71,259.71,71.144,18.565,1005.6,10.32,-999.0,yes,yes,no,300234065749690,BD2GI,AOML,LAGARFOSS,North
2018-09-16T18:00:00Z,1537120800,2018,18,0,259.75,259.75,71.137,18.578,1005.5,10.32,-999.0,yes,yes,no,300234065749690,BD2GI,AOML,LAGARFOSS,North
2018-09-16T18:57:36Z,1537124256,2018,19,0,259.79,259.79,71.126,18.587,1005.4,10.3,-999.0,yes,yes,no,300234065749690,BD2GI,AOML,LAGARFOSS,North
2018-09-16T19:55:12Z,1537127712,2018,20,0,259.83,259.83,71.114,18.592,1005.2,10.28,-999.0,yes,yes,no,300234065749690,BD2GI,AOML,LAGARFOSS,North
2018-09-16T21:07:12Z,1537132032,2018,21,0,259.88,259.88,71.097,18.584,1005.0,10.26,-999.0,yes,yes,no,300234065749690,BD2GI,AOML,LAGARFOSS,North
2018-09-16T22:04:48Z,1537135488,2018,22,0,259.92,259.92,71.078,18.563,1004.6,10.23,-999.0,yes,yes,no,300234065749690,BD2GI,AOML,LAGARFOSS,North
2018-09-16T23:02:24Z,1537138944,2018,23,0,259.96,259.96,71.061,18.543,1004.2,10.23,-999.0,yes,yes,no,300234065749690,BD2GI,AOML,LAGARFOSS,North
2018-09-17T00:00:00Z,1537142400,2018,0,0,260.0,260.0,71.049,18.51,1003.6,10.25,-999.0,yes,yes,no,300234065749690,BD2GI,AOML,LAGARFOSS,North
2018-09-17T00:57:36Z,1537145856,2018,1,0,260.04,260.04,71.044,18.476,1003.2,10.26,-999.0,yes,yes,no,300234065749690,BD2GI,AOML,LAGARFOSS,North
2018-09-17T01:55:12Z,1537149312,2018,2,0,260.08,260.08,71.041,18.446,1003.1,10.25,-999.0,yes,yes,no,300234065749690,BD2GI,AOML,LAGARFOSS,North
2018-09-17T02:52:48Z,1537152768,2018,3,0,260.12,260.12,71.042,18.428,1002.9,10.22,-999.0,yes,yes,no,300234065749690,BD2GI,AOML,LAGARFOSS,North
2018-09-17T04:04:48Z,1537157088,2018,4,0,260.17,260.17,71.042,18.418,1002.9,10.2,-999.0,yes,yes,no,300234065749690,BD2GI,AOML,LAGARFOSS,North
2018-09-17T05:02:24Z,1537160544,2018,5,0,260.21,260.21,71.04,18.41,1002.9,10.2,-999.0,yes,yes,no,300234065749690,BD2GI,AOML,LAGARFOSS,North
2018-09-17T06:00:00Z,1537164000,2018,6,0,260.25,260.25,71.037,18.412,1002.8,10.23,-999.0,yes,yes,no,300234065749690,BD2GI,AOML,LAGARFOSS,North
2018-09-17T06:57:36Z,1537167456,2018,7,0,260.29,260.29,71.027,18.419,1002.7,10.25,-999.0,yes,yes,no,300234065749690,BD2GI,AOML,LAGARFOSS,North
2018-09-17T07:55:12Z,1537170912,2018,8,0,260.33,260.33,71.017,18.423,1002.3,10.26,-999.0,yes,yes,no,300234065749690,BD2GI,AOML,LAGARFOSS,North
2018-09-17T09:07:12Z,1537175232,2018,9,0,260.38,260.38,71.01,18.434,1001.9,10.65,-999.0,yes,yes,no,300234065749690,BD2GI,AOML,LAGARFOSS,North
2018-09-17T10:04:48Z,1537178688,2018,10,0,260.42,260.42,71.007,18.453,1001.5,10.92,-999.0,yes,yes,no,300234065749690,BD2GI,AOML,LAGARFOSS,North
2018-09-17T11:02:24Z,1537182144,2018,11,0,260.46,260.46,71.003,18.464,1001.1,11.0,-999.0,yes,yes,no,300234065749690,BD2GI,AOML,LAGARFOSS,North
2018-09-17T12:00:00Z,1537185600,2018,12,0,260.5,260.5,71.001,18.473,1001.0,11.19,-999.0,yes,yes,no,300234065749690,BD2GI,AOML,LAGARFOSS,North
2018-09-17T12:57:36Z,1537189056,2018,13,0,260.54,260.54,71.001,18.488,1000.7,11.23,-999.0,yes,yes,no,300234065749690,BD2GI,AOML,LAGARFOSS,North
2018-09-17T13:55:12Z,1537192512,2018,14,0,260.58,260.58,71.001,18.508,1000.5,11.22,-999.0,yes,yes,no,300234065749690,BD2GI,AOML,LAGARFOSS,North
2018-09-17T14:52:48Z,1537195968,2018,15,0,260.62,260.62,71.002,18.536,1000.0,11.15,-999.0,yes,yes,no,300234065749690,BD2GI,AOML,LAGARFOSS,North
2018-09-17T16:04:48Z,1537200288,2018,16,0,260.67,260.67,71.004,18.573,999.6,11.11,-999.0,yes,yes,no,300234065749690,BD2GI,AOML,LAGARFOSS,North
2018-09-17T17:02:24Z,1537203744,2018,17,0,260.71,260.71,71.004,18.622,999.4,11.08,-999.0,yes,yes,no,300234065749690,BD2GI,AOML,LAGARFOSS,North
2018-09-17T18:00:00Z,1537207200,2018,18,0,260.75,260.75,71.002,18.677,999.0,11.14,-999.0,yes,yes,no,300234065749690,BD2GI,AOML,LAGARFOSS,North
2018-09-17T18:57:36Z,1537210656,2018,19,0,260.79,260.79,70.997,18.728,998.8,11.15,-999.0,yes,yes,no,300234065749690,BD2GI,AOML,LAGARFOSS,North
2018-09-17T19:55:12Z,1537214112,2018,20,0,260.83,260.83,70.991,18.776,998.7,11.15,-999.0,yes,yes,no,300234065749690,BD2GI,AOML,LAGARFOSS,North
2018-09-17T21:07:12Z,1537218432,2018,21,0,260.88,260.88,70.985,18.813,998.5,11.16,-999.0,yes,yes,no,300234065749690,BD2GI,AOML,LAGARFOSS,North
2018-09-17T22:04:48Z,1537221888,2018,22,0,260.92,260.92,70.979,18.848,998.4,11.14,-999.0,yes,yes,no,300234065749690,BD2GI,AOML,LAGARFOSS,North
2018-09-17T23:02:24Z,1537225344,2018,23,0,260.96,260.96,70.972,18.871,998.4,11.13,-999.0,yes,yes,no,300234065749690,BD2GI,AOML,LAGARFOSS,North
2018-09-18T00:00:00Z,1537228800,2018,0,0,261.0,261.0,70.969,18.898,998.2,11.12,-999.0,yes,yes,no,300234065749690,BD2GI,AOML,LAGARFOSS,North
2018-09-18T00:57:36Z,1537232256,2018,1,0,261.04,261.04,70.97,18.932,998.3,11.1,-999.0,yes,yes,no,300234065749690,BD2GI,AOML,LAGARFOSS,North
2018-09-18T01:55:12Z,1537235712,2018,2,0,261.08,261.08,70.973,18.975,998.3,11.05,-999.0,yes,yes,no,300234065749690,BD2GI,AOML,LAGARFOSS,North
2018-09-18T02:52:48Z,1537239168,2018,3,0,261.12,261.12,70.977,19.026,998.2,11.03,-999.0,yes,yes,no,300234065749690,BD2GI,AOML,LAGARFOSS,North
2018-09-18T04:04:48Z,1537243488,2018,4,0,261.17,261.17,70.98,19.089,998.1,11.02,-999.0,yes,yes,no,300234065749690,BD2GI,AOML,LAGARFOSS,North
2018-09-18T05:02:24Z,1537246944,2018,5,0,261.21,261.21,70.981,19.157,998.1,11.01,-999.0,yes,yes,no,300234065749690,BD2GI,AOML,LAGARFOSS,North
2018-09-18T06:00:00Z,1537250400,2018,6,0,261.25,261.25,70.982,19.228,998.2,11.0,-999.0,yes,yes,no,300234065749690,BD2GI,AOML,LAGARFOSS,North
2018-09-18T06:57:36Z,1537253856,2018,7,0,261.29,261.29,70.978,19.297,998.4,10.98,-999.0,yes,yes,no,300234065749690,BD2GI,AOML,LAGARFOSS,North
2018-09-18T07:55:12Z,1537257312,2018,8,0,261.33,261.33,70.97,19.353,998.8,10.97,-999.0,yes,yes,no,300234065749690,BD2GI,AOML,LAGARFOSS,North
2018-09-18T09:07:12Z,1537261632,2018,9,0,261.38,261.38,70.959,19.396,999.2,10.98,-999.0,yes,yes,no,300234065749690,BD2GI,AOML,LAGARFOSS,North
2018-09-18T10:04:48Z,1537265088,2018,10,0,261.42,261.42,70.948,19.419,999.6,10.99,-999.0,yes,yes,no,300234065749690,BD2GI,AOML,LAGARFOSS,North
2018-09-18T11:02:24Z,1537268544,2018,11,0,261.46,261.46,70.94,19.425,1000.1,10.99,-999.0,yes,yes,no,300234065749690,BD2GI,AOML,LAGARFOSS,North
2018-09-18T12:00:00Z,1537272000,2018,12,0,261.5,261.5,70.936,19.43,1000.7,11.01,-999.0,yes,yes,no,300234065749690,BD2GI,AOML,LAGARFOSS,North
2018-09-18T12:57:36Z,1537275456,2018,13,0,261.54,261.54,70.933,19.441,1001.2,11.02,-999.0,yes,yes,no,300234065749690,BD2GI,AOML,LAGARFOSS,North
2018-09-18T13:55:12Z,1537278912,2018,14,0,261.58,261.58,70.927,19.45,1001.7,11.01,-999.0,yes,yes,no,300234065749690,BD2GI,AOML,LAGARFOSS,North
2018-09-18T14:52:48Z,1537282368,2018,15,0,261.62,261.62,70.921,19.468,1002.2,10.99,-999.0,yes,yes,no,300234065749690,BD2GI,AOML,LAGARFOSS,North
2018-09-18T16:04:48Z,1537286688,2018,16,0,261.67,261.67,70.914,19.499,1002.3,11.01,-999.0,yes,yes,no,300234065749690,BD2GI,AOML,LAGARFOSS,North
2018-09-18T17:02:24Z,1537290144,2018,17,0,261.71,261.71,70.903,19.531,1002.6,10.99,-999.0,yes,yes,no,300234065749690,BD2GI,AOML,LAGARFOSS,North
2018-09-18T18:00:00Z,1537293600,2018,18,0,261.75,261.75,70.889,19.558,1002.9,10.97,-999.0,yes,yes,no,300234065749690,BD2GI,AOML,LAGARFOSS,North
2018-09-18T18:57:36Z,1537297056,2018,19,0,261.79,261.79,70.877,19.585,1003.3,10.94,-999.0,yes,yes,no,300234065749690,BD2GI,AOML,LAGARFOSS,North
2018-09-18T19:55:12Z,1537300512,2018,20,0,261.83,261.83,70.866,19.614,1003.4,10.96,-999.0,yes,yes,no,300234065749690,BD2GI,AOML,LAGARFOSS,North
2018-09-18T21:07:12Z,1537304832,2018,21,0,261.88,261.88,70.855,19.641,1003.5,10.95,-999.0,yes,yes,no,300234065749690,BD2GI,AOML,LAGARFOSS,North
2018-09-18T22:04:48Z,1537308288,2018,22,0,261.92,261.92,70.846,19.664,1003.8,10.96,-999.0,yes,yes,no,300234065749690,BD2GI,AOML,LAGARFOSS,North
2018-09-18T23:02:24Z,1537311744,2018,23,0,261.96,261.96,70.835,19.684,1003.8,10.9,-999.0,yes,yes,no,300234065749690,BD2GI,AOML,LAGARFOSS,North
2018-09-19T00:00:00Z,1537315200,2018,0,0,262.0,262.0,70.823,19.697,1003.6,10.93,-999.0,yes,yes,no,300234065749690,BD2GI,AOML,LAGARFOSS,North
2018-09-19T00:57:36Z,1537318656,2018,1,0,262.04,262.04,70.81,19.703,1003.7,10.9,-999.0,yes,yes,no,300234065749690,BD2GI,AOML,LAGARFOSS,North
2018-09-19T01:55:12Z,1537322112,2018,2,0,262.08,262.08,70.794,19.707,1003.5,11.01,-999.0,yes,yes,no,300234065749690,BD2GI,AOML,LAGARFOSS,North
2018-09-19T02:52:48Z,1537325568,2018,3,0,262.12,262.12,70.778,19.703,1003.5,11.03,-999.0,yes,yes,no,300234065749690,BD2GI,AOML,LAGARFOSS,North
2018-09-19T04:04:48Z,1537329888,2018,4,0,262.17,262.17,70.765,19.689,1003.1,11.06,-999.0,yes,yes,no,300234065749690,BD2GI,AOML,LAGARFOSS,North
2018-09-19T05:02:24Z,1537333344,2018,5,0,262.21,262.21,70.755,19.668,1002.9,11.07,-999.0,yes,yes,no,300234065749690,BD2GI,AOML,LAGARFOSS,North
2018-09-19T06:00:00Z,1537336800,2018,6,0,262.25,262.25,70.75,19.654,1002.5,11.05,-999.0,yes,yes,no,300234065749690,BD2GI,AOML,LAGARFOSS,North
2018-09-19T06:57:36Z,1537340256,2018,7,0,262.29,262.29,70.749,19.647,1002.3,11.05,-999.0,yes,yes,no,300234065749690,BD2GI,AOML,LAGARFOSS,North
2018-09-19T07:55:12Z,1537343712,2018,8,0,262.33,262.33,70.749,19.645,1001.6,11.02,-999.0,yes,yes,no,300234065749690,BD2GI,AOML,LAGARFOSS,North
2018-09-19T09:07:12Z,1537348032,2018,9,0,262.38,262.38,70.749,19.638,1001.0,11.0,-999.0,yes,yes,no,300234065749690,BD2GI,AOML,LAGARFOSS,North
2018-09-19T10:04:48Z,1537351488,2018,10,0,262.42,262.42,70.748,19.63,1000.4,10.93,-999.0,yes,yes,no,300234065749690,BD2GI,AOML,LAGARFOSS,North
2018-09-19T11:02:24Z,1537354944,2018,11,0,262.46,262.46,70.745,19.628,999.9,11.04,-999.0,yes,yes,no,300234065749690,BD2GI,AOML,LAGARFOSS,North
2018-09-19T12:00:00Z,1537358400,2018,12,0,262.5,262.5,70.738,19.613,999.5,11.13,-999.0,yes,yes,no,300234065749690,BD2GI,AOML,LAGARFOSS,North
2018-09-19T12:57:36Z,1537361856,2018,13,0,262.54,262.54,70.732,19.582,998.8,11.17,-999.0,yes,yes,no,300234065749690,BD2GI,AOML,LAGARFOSS,North
2018-09-19T13:55:12Z,1537365312,2018,14,0,262.58,262.58,70.727,19.541,998.3,11.18,-999.0,yes,yes,no,300234065749690,BD2GI,AOML,LAGARFOSS,North
2018-09-19T14:52:48Z,1537368768,2018,15,0,262.62,262.62,70.727,19.501,997.9,11.18,-999.0,yes,yes,no,300234065749690,BD2GI,AOML,LAGARFOSS,North
2018-09-19T16:04:48Z,1537373088,2018,16,0,262.67,262.67,70.729,19.459,997.3,11.15,-999.0,yes,yes,no,300234065749690,BD2GI,AOML,LAGARFOSS,North
2018-09-19T17:02:24Z,1537376544,2018,17,0,262.71,262.71,70.734,19.421,996.7,11.15,-999.0,yes,yes,no,300234065749690,BD2GI,AOML,LAGARFOSS,North
2018-09-19T18:00:00Z,1537380000,2018,18,0,262.75,262.75,70.744,19.391,996.2,11.17,-999.0,yes,yes,no,300234065749690,BD2GI,AOML,LAGARFOSS,North
2018-09-19T18:57:36Z,1537383456,2018,19,0,262.79,262.79,70.756,19.376,995.9,11.15,-999.0,yes,yes,no,300234065749690,BD2GI,AOML,LAGARFOSS,North
2018-09-19T19:55:12Z,1537386912,2018,20,0,262.83,262.83,70.771,19.377,995.9,11.14,-999.0,yes,yes,no,300234065749690,BD2GI,AOML,LAGARFOSS,North